Regional Weather Roundup
Issued by NWS Cleveland, OH

Home | Current Version | Previous Version | Text Only | Print | Product List | Glossary Off
Versions: 1 2 3 4 5 6 7 8 9 10 11 12 13 14 15 16 17 18 19 20 21 22 23 24 25 26 27 28 29 30 31 32 33 34 35 36 37 38 39 40 41 42 43 44 45 46 47 48 49 50

057
ASUS41 KCLE 281310
RWRCLE
OHIO REGIONAL WEATHER ROUNDUP
NATIONAL WEATHER SERVICE WILMINGTON, OH
900 AM EDT WED SEP 28 2016

NOTE: "FAIR" INDICATES FEW OR NO CLOUDS BELOW 12,000 FEET WITH NO
SIGNIFICANT WEATHER AND/OR OBSTRUCTIONS TO VISIBILITY.

OHZ001>008-015>018-024>027-034-035-043-044-281400-
   NORTHWEST OHIO

CITY           SKY/WX    TMP DP  RH WIND       PRES   REMARKS
DEFIANCE       PTSUNNY   56  49  77 E7        29.82R
FINDLAY        LGT RAIN  55  51  86 E8        29.84F
TOLEDO EXPRESS PTSUNNY   56  49  77 SE10G22   29.84R
TOLEDO EXEC    RAIN      56  51  84 S7        29.90R
LIMA           PTSUNNY   53  53 100 E10       29.82F
$$

OHZ009>014-019>023-028>033-038-089-281400-
   NORTHEAST OHIO

CITY           SKY/WX    TMP DP  RH WIND       PRES   REMARKS
CLE-HOPKINS    CLOUDY    58  45  62 S7        29.90R
CLE-LAKEFRONT  PTSUNNY   62  44  51 S13       29.87R
CUY CO. ARPT   CLOUDY    59  48  67 S14       29.89R
LORAIN-ELYRIA  FAIR      57  44  62 S7        29.89R
ASHTABULA      FAIR      56  47  71 SE8       29.94R
AKRON-CANTON   PTSUNNY   56  43  61 SE8       29.91R
WOOSTER        PTSUNNY   54  46  74 SE6       29.90R
MANSFIELD      CLOUDY    55  48  77 SW5       29.89R
YOUNGSTOWN     CLOUDY    54  45  71 SE9       29.93S
$$

OHZ042-051>053-060>062-070>072-077>081-281400-
  SOUTHWEST OHIO

CITY           SKY/WX    TMP DP  RH WIND       PRES   REMARKS
CINC-COVINGTON PTSUNNY   60  48  64 S9        29.81R
CINC-LUNKEN    PTSUNNY   59  51  75 S5        29.82S
HAMILTON       RAIN      58  51  78 NW6       29.87R
DAYTON         HVY RAIN  54  53  97 SE7       29.85F FOG
WRIGHT-PAT AFB TSTM      56  55  99 S5        29.87R
DAYTON GENERAL LGT RAIN  55  50  83 NE8       29.84R
WILMINGTON     CLOUDY    59  47  64 VRB7      29.84R
$$

OHZ036-037-039>041-045>050-054>059-063>069-073>076-082>088-281400-
  CENTRAL AND SOUTHEAST OHIO

CITY           SKY/WX    TMP DP  RH WIND       PRES   REMARKS
COLUMBUS       CLOUDY    57  48  72 W13G22    29.89R
OSU AIRPORT    RAIN      54  51  90 NE5       29.88R FOG
BOLTON FIELD   LGT RAIN  54  50  87 CALM      29.88R
RICKENBACK AFB CLOUDY    58  46  64 W7        29.88R
NEWARK         PTSUNNY   58  47  66 S7        29.88R
MARION         RAIN      53  51  93 S3        29.91  FOG
LANCASTER      FAIR      57  46  66 SE9       29.88R
ZANESVILLE     FAIR      56  46  69 SE5       29.90S
NEW PHILLY     FAIR      54  46  74 SE3       29.92R
$$




USA.gov is the U.S. government's official web portal to all federal, state and local government web resources and services.